Weather History for Rickenbacker, OH

Change the Weather History Date:

Saturday, March 16, 2013

  Actual Average Record
Temperature  
Mean Temperature 46 °F -  
Max Temperature 59 °F 49 °F 73 °F (2003)
Min Temperature 34 °F 31 °F 21 °F (1997)
Degree Days  
Heating Degree Days 18    
Moisture  
Dew Point 38 °F    
Average Humidity 79    
Maximum Humidity 89    
Minimum Humidity 62    
Precipitation  
Precipitation 0.00 in - - ()
Sea Level Pressure  
Sea Level Pressure 29.77 in    
Wind  
Wind Speed 8 mph (NW)    
Max Wind Speed 20 mph    
Max Gust Speed 24 mph    
Visibility 8 miles    
Events Rain    
Averages and records for this station are not official NWS values.
T = Trace of Precipitation, MM = Missing Value Source: NWS Daily Summary

Daily Weather History Graph

Daily Weather History Graph

Search for Another Location

Airport:

Trip Planner

Search our weather history database for the weather conditions in past years. The results will help you decide how hot, cold, wet, or windy it might be!

Date:

Astronomy

Mar. 16, 2013 Rise Set
Actual Time 7:41 AM EDT 7:39 PM EDT
Civil Twilight 7:14 AM EDT 8:06 PM EDT
Nautical Twilight 6:42 AM EDT 8:38 PM EDT
Astronomical Twilight 6:11 AM EDT 9:10 PM EDT
Moon 10:10 AM EDT (3/16) No Moon Set
Length of Visible Light 12h 52m
Length of Day
11h 58m
Waxing Crescent, 23% of the Moon is Illuminated
Mar 16
Waxing Crescent
Mar 19
First Quarter
Mar 27
Full
Apr 3
Last Quarter
Apr 10
New

Hourly Weather History & Observations

Time (EDT) Temp. Windchill Dew Point Humidity Pressure Visibility Wind Dir Wind Speed Gust Speed Precip Events Conditions
12:15 AM 42.6 °F 39.9 °F 39.0 °F 87% 29.83 in 4.0 mi ESE 4.6 mph - N/A   Overcast
12:35 AM 42.1 °F 39.2 °F 38.7 °F 88% 29.81 in 4.0 mi East 4.6 mph - N/A Rain Light Rain
12:55 AM 42.1 °F 40.2 °F 38.7 °F 88% 29.81 in 4.0 mi NE 3.5 mph - N/A Rain Light Rain
1:15 AM 41.9 °F 38.2 °F 38.5 °F 88% 29.81 in 3.0 mi NNE 5.8 mph - N/A Rain Light Rain
1:35 AM 41.9 °F 39.0 °F 38.7 °F 88% 29.79 in 3.0 mi NE 4.6 mph - N/A Rain Light Rain
1:55 AM 41.5 °F 38.6 °F 38.3 °F 88% 29.78 in 2.5 mi ENE 4.6 mph - N/A   Light Drizzle
2:15 AM 41.2 °F 37.3 °F 38.3 °F 89% 29.75 in 2.5 mi East 5.8 mph - N/A Rain Light Rain
2:35 AM 41.0 °F 37.1 °F 37.9 °F 89% 29.75 in 3.0 mi SSE 5.8 mph - N/A   Overcast
2:55 AM 41.0 °F 37.1 °F 37.8 °F 88% 29.73 in 4.0 mi SSE 5.8 mph - N/A   Overcast
3:15 AM 41.5 °F 35.9 °F 38.1 °F 88% 29.72 in 5.0 mi SSE 9.2 mph - N/A Rain Light Rain
3:35 AM 42.3 °F 37.3 °F 38.5 °F 86% 29.71 in 5.0 mi South 8.1 mph - N/A   Overcast
3:55 AM 42.6 °F 37.2 °F 38.7 °F 86% 29.70 in 5.0 mi South 9.2 mph - N/A   Overcast
4:15 AM 42.8 °F 39.3 °F 38.8 °F 86% 29.71 in 5.0 mi South 5.8 mph - N/A   Overcast
4:35 AM 43.5 °F 41.9 °F 39.4 °F 85% 29.70 in 7.0 mi SSE 3.5 mph - N/A   Overcast
4:55 AM 43.7 °F 39.7 °F 39.6 °F 85% 29.67 in 7.0 mi SE 6.9 mph - N/A   Overcast
5:15 AM 44.8 °F 39.4 °F 40.1 °F 84% 29.67 in 10.0 mi SSE 10.4 mph - N/A   Overcast
5:35 AM 45.1 °F 41.4 °F 40.1 °F 82% 29.67 in 10.0 mi SSE 6.9 mph - N/A   Overcast
5:55 AM 45.0 °F 40.6 °F 40.1 °F 83% 29.67 in 10.0 mi SSE 8.1 mph - N/A   Overcast
6:15 AM 44.8 °F 40.4 °F 40.1 °F 84% 29.66 in 10.0 mi SSE 8.1 mph - N/A   Overcast
6:35 AM 44.4 °F 42.9 °F 39.7 °F 84% 29.66 in 7.0 mi SE 3.5 mph - N/A   Overcast
6:55 AM 43.7 °F - 39.4 °F 85% 29.67 in 7.0 mi Calm Calm - N/A   Mostly Cloudy
7:15 AM 43.5 °F - 39.4 °F 85% 29.67 in 7.0 mi Calm Calm - N/A   Overcast
7:35 AM 43.5 °F - 39.4 °F 85% 29.66 in 7.0 mi Calm Calm - N/A   Mostly Cloudy
7:55 AM 43.3 °F 41.7 °F 39.0 °F 85% 29.64 in 10.0 mi SSE 3.5 mph - N/A   Scattered Clouds
8:15 AM 43.2 °F 40.5 °F 38.8 °F 85% 29.64 in 10.0 mi SSE 4.6 mph - N/A   Clear
8:35 AM 43.9 °F 41.3 °F 39.6 °F 85% 29.64 in 10.0 mi South 4.6 mph - N/A   Clear
8:55 AM 44.1 °F 40.8 °F 39.7 °F 85% 29.64 in 10.0 mi South 5.8 mph - N/A   Scattered Clouds
9:15 AM 44.6 °F 41.4 °F 40.1 °F 84% 29.62 in 10.0 mi SSE 5.8 mph - N/A   Scattered Clouds
9:35 AM 46.2 °F 43.3 °F 41.4 °F 83% 29.61 in 10.0 mi South 5.8 mph - N/A   Clear
9:55 AM 48.2 °F - 42.6 °F 81% 29.61 in 10.0 mi SSW 4.6 mph - N/A   Clear
10:15 AM 50.2 °F - 43.9 °F 79% 29.61 in 10.0 mi SSW 9.2 mph - N/A   Clear
10:35 AM 51.6 °F - 44.8 °F 77% 29.61 in 10.0 mi SW 8.1 mph - N/A   Clear
10:55 AM 52.9 °F - 46.0 °F 78% 29.62 in 10.0 mi WSW 11.5 mph 16.1 mph N/A   Scattered Clouds
11:15 AM 55.2 °F - 47.7 °F 76% 29.62 in 10.0 mi West 11.5 mph - N/A   Mostly Cloudy
11:35 AM 56.3 °F - 48.2 °F 74% 29.62 in 10.0 mi West 10.4 mph - N/A   Overcast
11:55 AM 57.7 °F - 47.7 °F 69% 29.62 in 10.0 mi WNW 15.0 mph 20.7 mph N/A   Overcast
12:15 PM 58.1 °F - 46.8 °F 66% 29.62 in 10.0 mi WNW 11.5 mph 17.3 mph N/A   Scattered Clouds
12:35 PM 59.0 °F - 47.1 °F 65% 29.64 in 10.0 mi West 15.0 mph 19.6 mph N/A   Scattered Clouds
12:55 PM 58.3 °F - 46.0 °F 64% 29.67 in 10.0 mi NW 16.1 mph 23.0 mph N/A   Overcast
1:15 PM 57.4 °F - 44.6 °F 62% 29.68 in 10.0 mi NW 16.1 mph - N/A   Mostly Cloudy
1:35 PM 56.7 °F - 43.7 °F 62% 29.70 in 10.0 mi NW 15.0 mph - N/A   Overcast
1:55 PM 55.2 °F - 43.0 °F 63% 29.71 in 10.0 mi WNW 12.7 mph 20.7 mph N/A   Overcast
2:15 PM 54.3 °F - 42.8 °F 65% 29.72 in 7.0 mi NW 11.5 mph - N/A   Overcast
2:55 PM 53.6 °F - 42.1 °F 65% 29.75 in 7.0 mi NNW 17.3 mph - N/A   Overcast
3:15 PM 52.5 °F - 40.8 °F 64% 29.76 in 7.0 mi NNW 18.4 mph - N/A   Overcast
3:35 PM 50.9 °F - 39.9 °F 66% 29.77 in 7.0 mi NW 15.0 mph - N/A   Overcast
3:55 PM 49.8 °F - 39.9 °F 69% 29.79 in 7.0 mi NW 15.0 mph 20.7 mph N/A   Overcast
4:15 PM 48.7 °F - 39.2 °F 70% 29.81 in 7.0 mi NW 19.6 mph 24.2 mph N/A   Overcast
4:35 PM 47.3 °F - 37.9 °F 70% 29.82 in 7.0 mi NW 13.8 mph - N/A   Overcast
4:55 PM 45.7 °F 38.6 °F 37.8 °F 74% 29.83 in 5.0 mi NNW 17.3 mph - N/A   Haze
5:15 PM 43.5 °F 36.7 °F 36.7 °F 77% 29.83 in 5.0 mi NNW 13.8 mph - N/A   Haze
5:35 PM 42.1 °F 34.5 °F 35.8 °F 78% 29.85 in 7.0 mi NNW 15.0 mph - N/A   Overcast
5:55 PM 41.0 °F 33.1 °F 34.7 °F 78% 29.86 in 10.0 mi NW 15.0 mph - N/A   Overcast
6:15 PM 40.3 °F 33.4 °F 33.8 °F 78% 29.88 in 10.0 mi NW 11.5 mph 18.4 mph N/A   Overcast
6:35 PM 39.6 °F 33.0 °F 32.7 °F 76% 29.90 in 10.0 mi NNW 10.4 mph - N/A   Overcast
6:55 PM 39.2 °F 32.0 °F 32.2 °F 76% 29.92 in 10.0 mi NNW 11.5 mph - N/A   Overcast
7:15 PM 38.7 °F 31.4 °F 31.8 °F 76% 29.93 in 10.0 mi NNW 11.5 mph 16.1 mph N/A   Overcast
7:35 PM 38.1 °F 30.7 °F 31.3 °F 76% 29.93 in 10.0 mi NNW 11.5 mph - N/A   Overcast
7:55 PM 37.6 °F 29.6 °F 31.1 °F 77% 29.95 in 10.0 mi NNW 12.7 mph - N/A   Overcast
8:15 PM 37.2 °F 29.6 °F 30.7 °F 77% 29.95 in 10.0 mi NNW 11.5 mph - N/A   Overcast
8:35 PM 36.9 °F 29.1 °F 30.6 °F 78% 29.96 in 10.0 mi NNW 11.5 mph - N/A   Overcast
8:55 PM 36.9 °F 30.1 °F 30.4 °F 77% 29.97 in 10.0 mi NNW 9.2 mph - N/A   Overcast
9:15 PM 36.7 °F 29.9 °F 30.7 °F 79% 29.96 in 10.0 mi NNW 9.2 mph - N/A   Overcast
9:35 PM 36.5 °F 28.7 °F 30.6 °F 79% 29.97 in 10.0 mi NNW 11.5 mph - N/A   Overcast
9:55 PM 36.5 °F 29.7 °F 30.0 °F 77% 29.97 in 10.0 mi North 9.2 mph - N/A   Overcast
10:15 PM 36.0 °F 28.5 °F 30.4 °F 80% 29.98 in 10.0 mi North 10.4 mph - N/A   Overcast
10:35 PM 35.6 °F 29.9 °F 29.7 °F 79% 29.99 in 10.0 mi NNW 6.9 mph - N/A   Overcast
10:55 PM 35.4 °F 29.0 °F 29.7 °F 80% 30.00 in 10.0 mi North 8.1 mph - N/A   Overcast
11:15 PM 35.1 °F 27.9 °F 29.3 °F 80% 30.01 in 10.0 mi North 9.2 mph - N/A   Overcast
11:35 PM 34.7 °F 28.1 °F 28.8 °F 79% 30.01 in 10.0 mi North 8.1 mph - N/A   Overcast
11:55 PM 34.7 °F 29.6 °F 28.4 °F 78% 30.03 in 10.0 mi North 5.8 mph - N/A   Overcast